Terug naar catalogus

CZ-6A DEB

ActiefPO
NORAD 63392·DEBRIS·🇨🇳 China

Gelanceerd Aug 6, 2024 vanaf Taiyuan Satellite Launch Center

Loading…

Volgende Passages (komende 24 uur)

TLE

VersSource: Space-Track

Epoch: Sep 14, 2026, 11:48 UTC

1 63392U 24140ADP 26257.49173012  .00000249  00000-0  10743-3 0  9996
2 63392  89.0261 267.2434 0035024 251.9480 107.7894 14.21232727106635

Volg CZ-6A DEB in realtime met AllMySat

Download on the App Store